Other Public Products
Issued by NWS Charleston, SC

Current Version | Previous Version | Graphics & Text | Print | Product List | Glossary On
Versions: 1 2 3 4 5 6 7 8 9 10 11 12 13 14 15 16 17 18 19 20 21 22 23 24 25 26 27 28 29 30 31 32 33 34 35 36 37 38 39 40 41 42 43 44 45 46 47 48 49 50
000 FPUS82 KCHS 232011 OPUCHS TEST...KCHS/KSAV Gateway Observations...TEST National Weather Service Charleston SC 300 PM EST THU FEB 23 2017 NOTE: "fair" indicates few or no clouds below 12,000 feet with no significant weather and/or obstructions to visibility. SCZ050-WAZ558-NCZ071-TXZ119-213-PAZ071-DCZ001-FLZ074-172-MI076- NYZ176-178-MAZ016-IL014-TNZ027-NJZ106-GAZ044-MD014-232100- ...Gateway Observations for Charleston International... CITY SKY/WX TMP DP RH WIND PRES REMARKS Chas Airport PTSUNNY 76 57 51 E17 29.81F Seattle PTSUNNY 38 34 85 N5 30.26F WCI 34 Charlotte MOSUNNY 73 48 41 SE5G18 29.85F Dallas DFW SUNNY 87 47 24 S20 29.51F Dallas Love MOSUNNY 87 46 24 S20 29.52F Philladelphia PTSUNNY 72 53 51 SW14 29.82S Wash National MOSUNNY 72 54 53 S17 29.80F Baltimore MOSUNNY 76 52 43 S14G21 29.79F Miami MOSUNNY 78 54 43 W14G21 29.61F Detroit MOSUNNY 68 39 34 W12 29.73R Newark MOSUNNY 65 52 62 S9 29.80F Laguardia MOSUNNY 64 51 62 S12G17 29.80F J F K PTSUNNY 52 50 93 S12 29.84F FOG Boston Logan MOSUNNY 68 49 50 SW21 29.73F Ft. Lauderdale PTSUNNY 78 58 49 SW10G17 29.59F Chicago O`Hare CLOUDY 42 35 76 NE16 29.81S Chicago Midway CLOUDY 43 35 73 NE14 29.82R Houston Bush SUNNY 82 56 40 SE15G23 29.69F Houston Hobby SUNNY 79 59 50 S12G22 29.70F Nashville PTSUNNY 74 54 49 S14 29.78F Atlanta MOSUNNY 73 53 49 SE7 29.83F $$ GAZ044-118-TXZ119-213-NCZ071-DCZ001-MDZ014-506-PAZ021-071-NJZ106- NYZ176-178-MAZ106-OHZ011-021-055-MIZ076-KYZ091-ILZ014-INZ047- MNZ060-ONZ431-232100- ...Gateway Observations for Savannah International... CITY SKY/WX TMP DP RH WIND PRES REMARKS Savannah Arpt PTSUNNY 75 57 53 E15G25 29.80S Atlanta MOSUNNY 73 53 49 SE7 29.83F Charlotte MOSUNNY 73 48 41 SE5G18 29.85F Dallas DFW SUNNY 87 47 24 S20 29.51F Houston Bush SUNNY 82 56 40 SE15G23 29.69F Wash National MOSUNNY 72 54 53 S17 29.80F Wash Dulles MOSUNNY 76 49 38 SW12 29.79F Baltimore MOSUNNY 76 52 43 S14G21 29.79F Philadelphia PTSUNNY 72 53 51 SW14 29.82S Newark MOSUNNY 65 52 62 S9 29.80F Laguardia MOSUNNY 64 51 62 S12G17 29.80F J F K PTSUNNY 52 50 93 S12 29.84F FOG Boston MOSUNNY 68 49 50 SW21 29.73F Pittsburg CLOUDY 67 54 63 W7G17 29.79R Akron PTSUNNY 67 52 58 W12 29.77R Cleveland PTSUNNY 67 52 58 SW13G24 29.78S Cincinnati CLOUDY 68 56 65 S13 29.76S Columbus MOSUNNY 69 56 63 W15G21 29.76S Detroit MOSUNNY 68 39 34 W12 29.73R Chicago O`Hare CLOUDY 42 35 76 NE16 29.81S Minneapolis CLOUDY 36 22 56 NE13G24 29.90F WCI 27 Indianapolis CLOUDY 68 54 60 SW9 29.71F Toronto Canada MOSUNNY 59 45 58 NW24 29.69R $$

USA.gov is the U.S. government's official web portal to all federal, state and local government web resources and services.